OPS 4682 DEB, 18427

Orbit data source: Space-Track

OPS 4682 DEB, 18427 is space debris in LEO originally from a launch on Sat, 03 Apr 1965 UTC launched from the Air Force Western Test Range (AFWTR). Debris objects in space refer to the collection of defunct objects orbiting the Earth. Examples of debris include non-operational satellites, rocket bodies, and fragments generated from explosions, collisions, or faulty payload assembly.

Loading next visibility...
Identifier
18427, 1965-027AB
Orbit
LEO
Country
Flag of USUS
Related business
Manufacturer
Unknown
Mission
Spacecraft
Bus & Motor
Unknown
Mass
Unknown
Launch date (UTC)
1965-04-03 (61 years ago)
Launch vehicle
Unknown
Launch site
Air Force Western Test Range (AFWTR)
Object type
Payload
Rocket body
Debris
Shape & HBR
Unknown shape, 0.1 m
Radar Cross Section
Small (<0.1 m²)

Expand to show TLE details & history
Last TLE update: 1 day ago

TLE from 1 day ago
0 OPS 4682 DEB
1 18427U 65027AB  25315.07745122  .00000432  00000-0  13183-2 0  9993
2 18427  90.2705 358.9633 0021894  89.7446 339.5862 13.04621559929895
Epoch: 2025-11-11T01:51Z
TLE epoch observation values (Epoch: 2025-11-11T01:51:31.785Z)
Latitude
69.31172°
Longitude
-80.10103°
Altitude
1,240.469 km
Speed
7.248 km/s
True Right ascension
23h 53m 00s
True Declination
69° 12' 18"
Sunlit
Object was in daylight at epoch
Visualization orbit readout
Latitude
Unknown
Longitude
Unknown
Altitude
Unknown
Speed
Unknown
Apparent Right ascension
Unknown
Apparent Declination
Unknown
Sunlit
N/A
Visualization observer readout
Local Sidereal Time
01:16:36
Azimuth
Unknown
Elevation
Unknown
Doppler factor
Unknown
Orbital elements
Apogee altitude
1,257.834 km
Perigee altitude
1,224.471 km
Semi-major axis
7,619.29 km
Eccentricity
0.00219
Inclination
90.2705°
RAAN
358.9633°
Arg. of periapsis
89.7446°
True anomaly
339.49847°
Mean anomaly
339.5862°
Eccentric anomaly
339.54236°
Mean motion
3.26341 °/min
Orbital period
110.31 mins
BSTAR
0.0013183
Loading maneuver chart data...
Computing Atmospheric mass density...
Loading historical data...
Loading historical data...
Loading historical data...
Loading historical data...
Loading historical data...
Loading historical data...
Loading historical data...

Documentation

Showing up to 5 results
|